Location: Newark
(46.7000°N, 60.6000°W)
Time: 23:24:58
(UTC+00:00)

Vanguard 3 - Pass Details

Date: 06 November 2020
Orbit: 508 x 3262 km, 33.3° (Epoch: 29 November)

Event Time Altitude Azimuth Distance (km) Brightness Sun altitude
Rises 13:08:08 0° 276° (W) 6,817 11.4 17.8°
Reaches altitude 10° 13:13:22 10° 267° (W) 6,022 11.3 18.3°
Maximum altitude 13:28:20 29° 217° (SW) 4,728 11.4 19.9°
Drops below altitude 10° 13:42:25 10° 166° (SSE) 5,607 13.0 21.2°
Sets 13:47:09 0° 156° (SSE) 6,290 13.2 21.6°
